Погода в Ишгле

Австрия     46°59′18″N   10°14′26″E
темп.,
°C
ветер,
м/с
пор.,
м/с
влажн.,
%
обл.,
%
осадки,
мм/ч
давл.,
гПа
погр.,
м
27 ноября, сб
сб2701:00−8ююв119498 1.7 99589
04:00−9ююв1195100 0.3 99442
07:00−10юв1196100 0.6 99313
10:00−7ссз1194100 1.1 992230
13:00−6с118988 4.0 992254
16:00−9с129999 0.8 99513
19:00−9ююв2296100 1.6 99638
22:00−9с1297100 1.6 99797
28 ноября, вс
вс2801:00−9ссв3396100 4.7 997194
04:00−10ссз2297100 2.4 997117
07:00−11сз1197100 3.8 99843
10:00−10ссз2293100 0.8 998252
13:00−9ссз2291100 1.6 997464
16:00−10ссз2296100 0.9 998260
19:00−14сз11100100 1.0 100210
22:00−16зсз119994 0.0 100510
29 ноября, пн
пн2901:00−14зсз1197100 0.4 100418
04:00−12сз2296100 0.9 100375
07:00−14зсз2197100 1.8 100713
10:00−11сз239197 0.9 1008355
13:00−11сз238799 1.4 1009514
16:00−13сз339698 0.9 101387
19:00−15з229899 1.4 101832
22:00−17з119978 0.4 102110
30 ноября, вт
вт3001:00−14з229798 0.9 102136
04:00−14зсз229790 0.6 102321
07:00−19зюз229848 0.7 102710
10:00−12юз338439 0.0 102484
13:00−9з3373100 0.0 1021265
16:00−9юз3495100 1.0 1021140
19:00−7зюз3496100 3.2 102099
22:00−6зюз3396100 1.8 102085
1 декабря, ср
ср101:00−6зюз339695 2.7 101945
04:00−10юз329512 0.2 102011
07:00−10юз329152 0.2 101810
10:00−4юз33866 0.0 101283
13:00−2юз3480100 0.0 1007320
16:00−5ю4389100 0.0 100729
19:00−9ю449475 0.0 101035
22:00−11ю5494100 0.0 101037